Location: Unspecified
(0.0000°N, 0.0000°E)
Time: 11:14:28
(UTC+00:00)

Tiros 1 - Pass Details

Date: 28 November 2019
Orbit: 630 x 664 km, 48.4° (Epoch: 14 December)

Event Time Altitude Azimuth Distance (km) Brightness Sun altitude
Rises 19:19:37 0° 323° (NW) 2,921 10.7 -21.3°
Reaches altitude 10° 19:21:55 10° 324° (NW) 2,020 9.8 -21.8°
Maximum altitude 19:26:34 80° 51° (NE) 655 7.0 -22.9°
Enters shadow 19:27:33 56° 127° (SE) 770 7.3 -23.1°
Drops below altitude 10° 19:31:18 10° 138° (SE) 2,050 - -23.9°
Sets 19:33:39 0° 139° (SE) 2,968 - -24.5°
